Voltar ao catálogo

SCOUT G-1 DEB

AtivoPO
NORAD 44570·DEBRIS·🇺🇸 United States

Lançado Aug 3, 1985 de Vandenberg Space Force Base

Loading…

Próximas Passagens (próximas 24 horas)

TLE

ObsoletoSource: Space-Track

Época: Aug 31, 2026, 09:44 UTC

1 44570U 85066J   26243.40579030  .00000495  00000-0  85207-3 0  9993
2 44570  90.1570  97.4123 0161534  66.7746  51.5544 13.38022039609185

Acompanhe SCOUT G-1 DEB em tempo real com AllMySat

Download on the App Store